Home   Weather   Gdynia   Past weeks

Flag for Poland Past Weather in Gdynia, Poland — Yesterday and Last 2 Weeks

Now
46 °F

Fog.


Feels Like: 42 °F
Forecast: 49 / 67 °F
Wind: 9 mph from West

Location: Gdansk-Rebiechowo

Current Time: May 25, 2017 at 6:50:26 am

Latest Report: May 25, 2017 at 6:00 am


Visibility: 3 mi

Pressure: 30.01 "Hg

Humidity: 93%

Dew Point: 45 °F

Location of GdyniaLocation

Past Weather in Gdynia — Graph

°F

Gdynia Temperature Yesterday

Maximum temperature yesterday: 66 °F (at 10:00 am)
Minimum temperature yesterday: 46 °F (at 11:30 pm)
Average temperature yesterday: 57 °F

High & Low Weather Summary for the Past Weeks

 TemperatureHumidityPressure
High79 °F (May 20, 1:00 pm)100% (May 10, 8:30 am)30.42 "Hg (May 10, 8:30 am)
Low28 °F (May 11, 4:00 am)31% (May 14, 12:30 pm)29.71 "Hg (May 10, 1:00 pm)
Average56 °F67%30.03 "Hg
* Reported May 10 5:00 am — May 25 5:30 am, Gdynia. Weather by CustomWeather, © 2017

Note: Actual official high and low records may vary slightly from our data, if they occured in-between our weather recording intervals... More about our weather records

Advertising

Gdynia Weather History for the Previous 24 Hours

Scroll right to see more
 ConditionsComfort  
Time TempWeatherWind HumidityBarometerVisibility
5:30 am
Thu, May 25
45 °FFog.7 mph100%30.01 "Hg2 mi
5:00 am46 °FFog.7 mph93%30.01 "Hg2 mi
4:30 am45 °FFog.6 mph100%30.01 "Hg2 mi
4:00 am45 °FFog.6 mph100%30.01 "Hg2 mi
3:30 am45 °FFog.5 mph93%30.01 "Hg2 mi
3:00 am45 °FFog.5 mph93%30.01 "Hg3 mi
2:30 am45 °FClear.7 mph93%30.01 "Hg4 mi
2:00 am46 °FClear.7 mph87%30.01 "Hg10 mi
1:30 am46 °FClear.6 mph87%30.01 "Hg10 mi
1:00 am46 °FClear.3 mph87%30.01 "Hg10 mi
12:30 am46 °FClear.5 mph87%30.01 "Hg10 mi
12:00 am46 °FClear.3 mph87%30.01 "Hg10 mi
11:30 pm
Wed, May 24
46 °FClear.5 mph82%30.01 "Hg10 mi
11:00 pm48 °FClear.3 mph82%30.01 "Hg10 mi
10:30 pm48 °FPassing clouds.3 mph76%30.01 "HgN/A
10:00 pm52 °FPassing clouds.3 mph67%30.01 "HgN/A
9:30 pm52 °FClear.5 mph67%30.01 "Hg10 mi
9:00 pm54 °FClear.5 mph63%30.01 "Hg10 mi
8:30 pm55 °FSunny.7 mph59%29.98 "Hg10 mi
8:00 pm57 °FSunny.9 mph55%29.98 "Hg10 mi
7:30 pm57 °FPassing clouds.12 mph63%29.98 "HgN/A
7:00 pm59 °FPassing clouds.10 mph59%29.95 "HgN/A
6:30 pm61 °FSunny.13 mph55%29.95 "Hg10 mi
6:00 pm61 °FSunny.12 mph59%29.95 "Hg10 mi
5:30 pm63 °FSunny.12 mph59%29.92 "Hg10 mi
5:00 pm64 °FPassing clouds.10 mph56%29.92 "HgN/A
4:30 pm63 °FScattered clouds.6 mph68%29.92 "HgN/A
4:00 pm59 °FPassing clouds.6 mph77%29.92 "HgN/A
3:30 pm59 °FPassing clouds.5 mph72%29.92 "HgN/A
3:00 pm59 °FPassing clouds.5 mph72%29.92 "HgN/A
2:30 pm59 °FPassing clouds.3 mph68%29.92 "HgN/A
2:00 pm59 °FThunderstorms. Scattered clouds.6 mph68%29.92 "HgN/A
1:30 pm59 °FThunderstorms. Partly sunny.6 mph68%29.89 "HgN/A
1:00 pm63 °FThunderstorms. Partly sunny.6 mph59%29.89 "HgN/A
12:30 pm64 °FScattered clouds.9 mph56%29.89 "HgN/A
12:00 pm66 °FPassing clouds.9 mph52%29.89 "HgN/A
11:30 am63 °FPassing clouds.10 mph59%29.89 "HgN/A
11:00 am64 °FScattered clouds.12 mph60%29.89 "HgN/A
10:30 am63 °FScattered clouds.12 mph59%29.89 "HgN/A
10:00 am66 °FPassing clouds.7 mph56%29.86 "HgN/A
9:30 am64 °FPassing clouds.8 mph56%29.86 "HgN/A
9:00 am64 °FSunny.9 mph56%29.86 "Hg10 mi
8:30 am63 °FSunny.9 mph59%29.86 "Hg10 mi
8:00 am61 °FSunny.9 mph63%29.86 "Hg10 mi
7:30 am59 °FSunny.5 mph72%29.86 "Hg10 mi
7:00 am55 °FSunny.1 mph77%29.86 "Hg10 mi
6:30 am54 °FSunny.6 mph82%29.86 "Hg10 mi
6:00 am52 °FSunny.2 mph82%29.86 "Hg10 mi
Weather by CustomWeather, © 2017

See weather overviewHow to use our weather pages